カタログに戻る

DMSP 5D-2 F13 DEB

運用中SSO
NORAD 42286·DEBRIS·🇺🇸 United States

打ち上げ Mar 24, 1995 から Vandenberg Space Force Base

Loading…

次のパス (今後24時間)

TLE

経年Source: Space-Track

元期: Sep 10, 2026, 04:28 UTC

1 42286U 95015HC  26253.18624121  .00002502  00000-0  10588-2 0  9998
2 42286  98.9271 232.9300 0049511 186.8526 173.1981 14.25764709582892

AllMySatでDMSP 5D-2 F13 DEBをリアルタイム追跡

Download on the App Store